sat.trackr.live / text

‹ back to catalog

STARLINK-2454

NORAD 48116 · 2021-027AA

PAYLOAD ACTIVE UNKNOWN

§ Identity

Operator
Country
US
Launch date
2021-04-07
Launch site
AFETR
Launch vehicle
Mass (kg)
RCS (m²)

Purposes: comms

External: N2YO · Heavens-Above · Gunter

§ Orbital elements

Epoch: 2026-05-25T01:22:10.195680Z

Period
94.11 min
Inclination
53.1593°
Eccentricity
0.0001446
Mean motion
15.30195081 rev/d
Perigee alt
474.2 km
Apogee alt
476.2 km
Semi-major
6,853.4 km
B*
7.0648e-5
RAAN
170.5451°
Arg perigee
90.0719°
Mean anomaly
270.0448°
Rev number
28,420

§ Raw data

STARLINK-24541 48116U 21027AA  26145.05706245  .00001733  00000+0  70648-4 0  99912 48116  53.1593 170.5451 0001446  90.0719 270.0448 15.30195081284206

JSON: /api/v1/satellites/48116 · /tle

For live sub-satellite position, see the globe view (requires WebGL).

§ Visibility from observer

Set your observer location to see the next 7 days of passes ≥ 10°. The values pass through the URL so the page stays shareable.

No JS? Fill the form by hand. The geolocation button needs JavaScript.